Weather in Chernovka

Russia / Novosibirsk Oblast     54°09′09″N   79°59′48″E
temp.,
°C
wind,
m/s
gust,
m/s
humid.,
%
clouds,
%
prec.,
mm/h
press.,
hPa
HPBL,
m
28 september, tue
tue2801:00+5ene4862100 0.0 1023479
04:00+2ne367823 0.0 102299
07:000ne369084 0.0 1023112
10:00+3ne4672100 0.0 1022316
13:00+7ene455283 0.0 10211274
16:00+8ene4445100 0.0 10191426
19:00+6ene355771 0.0 1019111
22:00+3ene4972100 0.0 1018177
29 september, wed
wed2901:00+2ene41075100 0.0 1016241
04:00+3ene51176100 0.0 1014357
07:00+3ene51182100 0.1 1011571
10:00+2ne61197100 2.1 1010477
13:00+1nne61399100 9.2 1010416
16:00+2nne410100100 4.1 1011499
19:00+2n51099100 5.7 1012595
22:00+3nnw5999100 0.4 1012588
30 september, thu
thu3001:00+3nw5899100 0.4 1013499
04:00+3nw5798100 0.3 1013508
07:00+2wnw4798100 0.9 1014551
10:00+2wnw4798100 0.3 1015443
13:00+5wnw4681100 0.6 1016884
16:00+6wnw4671100 0.4 10161055
19:00+5wnw3680100 0.8 1016165
22:00+3w358798 0.1 1017115
1 october, fri
fri101:00+2wnw2394100 0.1 1016100
04:00+2w2498100 1.0 1015569
07:00+1w389572 2.1 1015404
10:00+2w589489 0.5 1015408
13:00+4wsw5778100 1.0 1014882
16:00+7wsw6962100 0.1 10141674
19:00+4w587585 0.2 1014308
22:00+2wsw5894100 0.1 1015644
2 october, sat
sat201:00+2nw2399100 0.5 1015355
04:00+1nw3499100 1.1 1015130
07:000w359393 1.2 1016374
10:00+1wnw4591100 0.2 1017504
13:00+2wnw3472100 0.3 1017969
16:00+3w4475100 0.4 1019780
19:00+1w4694100 1.0 1020314
22:00+1w369396 0.1 1022171